Flag for Micronesia Weather past 2 weeks in Kolonia, Ponape, Micronesia

Now
81 °F

Mostly cloudy.


Feels Like: 88 °F
Forecast: 77 / 87 °F
Wind: 14 mph from East

Location: Pohnpei

Current Time: Dec 21, 2014 at 6:35:52 AM

Latest Report: Dec 21, 2014 at 5:52 AM


Visibility: 15 mi

Pressure: 29.78 "Hg

Humidity: 87%

Dew point: 77 °F

Location of KoloniaLocation

Historic Weather in Kolonia — Graph

°F

Kolonia temperature yesterday

Maximum temperature yesterday: 86 °F (at 11:51 AM)
Minimum temperature yesterday: 76 °F (at 5:53 AM)
Average temperature yesterday: 81 °F

Past Weeks' High & Low Weather Summary

 TemperatureHumidityPressure
High88 °F (Dec 7, 9:50 AM)98% (Dec 14, 12:52 AM)29.91 "Hg (Dec 14, 12:52 AM)
Low76 °F (Dec 8, 3:52 AM)63% (Dec 18, 4:53 PM)29.71 "Hg (Dec 6, 2:52 PM)
Average82 °F84%29.84 "Hg
* Reported Dec 6 4:50 AM — Dec 21 4:53 AM, Kolonia, Weather by CustomWeather, © 2014

Note: Actual official high and low records may vary slightly from our data, if they occured in-between our weather recording intervals... More about our weather records

Advertising

Kolonia weather history for previous 24 hours

 ConditionsComfort  
Time TempWeatherWind HumidityBarometerVisibility
4:53 AM
Dec 21
78 °FSprinkles. Mostly cloudy.7 mph94%29.78 "Hg10 mi
3:50 AM79 °FMostly cloudy.6 mph91%29.77 "Hg15 mi
2:53 AM78 °FMostly cloudy.8 mph92%29.78 "Hg15 mi
1:53 AM80 °FMostly cloudy.6 mph92%29.78 "Hg15 mi
12:50 AM81 °FRain showers. Mostly cloudy.10 mph85%29.80 "Hg7 mi
11:55 PM
Dec 20
81 °FMostly cloudy.6 mph88%29.80 "Hg15 mi
10:52 PM81 °FMostly cloudy.7 mph89%29.80 "Hg15 mi
9:50 PM80 °FSprinkles. Mostly cloudy.9 mph88%29.83 "Hg15 mi
8:53 PM81 °FMostly cloudy.12 mph88%29.82 "Hg15 mi
7:54 PM80 °FMostly cloudy.8 mph93%29.80 "Hg15 mi
6:54 PM79 °FSprinkles. Mostly cloudy.6 mph91%29.79 "Hg15 mi
5:51 PM82 °FMostly cloudy.9 mph83%29.77 "Hg15 mi
4:57 PM82 °FMostly cloudy.12 mph84%29.77 "Hg15 mi
2:50 PM84 °FCloudy.12 mph81%29.77 "Hg15 mi
1:50 PM86 °FBroken clouds.12 mph77%29.78 "Hg15 mi
12:50 PM85 °FCloudy.12 mph80%29.81 "Hg15 mi
11:51 AM86 °FCloudy.8 mph80%29.84 "Hg15 mi
10:53 AM85 °FCloudy.9 mph81%29.86 "Hg15 mi
9:51 AM85 °FMostly cloudy.8 mph77%29.88 "Hg15 mi
8:50 AM80 °FMostly cloudy.6 mph92%29.88 "Hg15 mi
7:51 AM78 °FSprinkles. Mostly cloudy.5 mph94%29.87 "Hg7 mi
6:52 AM78 °FMostly cloudy.6 mph87%29.85 "Hg15 mi
Weather by CustomWeather, © 2014

See weather overviewHow to use our weather pages